Hourly Data Report for June 02, 2018

OTTAWA INTL A
ONTARIO
Current Station Operator: NAVCAN

45°19'00.000" N
75°40'00.000" W
114.90 m
6106001
71628
YOW

Download Data

Hourly Data (June 2018)
Hourly Data Report for June 2, 2018
TIME
LST
Temp Definition
°C
Dew Point Definition
°C
Rel Hum Definition
%
Precip. Amount Definition
mm

Wind Dir Definition
10's deg

Wind Spd Definition
km/h
Visibility Definition
km
Stn Press Definition
kPa
Hmdx Definition


Wind Chill Definition


Weather Definition


00:00 16.1 11.3 73   34 25 24.1 99.81     LegendNANA
01:00 14.8 10.5 75   34 24 24.1 99.84     Mainly Clear
02:00 13.5 9.1 74   1 26 24.1 99.94     LegendNANA
03:00 13.1 8.7 74   35 26 24.1 100.00     LegendNANA
04:00 12.2 8.4 77   1 29 24.1 100.02     Mostly Cloudy
05:00 12.4 8.6 77   36 24 24.1 100.04     LegendNANA
06:00 13.2 7.7 69   1 25 24.1 100.09     LegendNANA
07:00 14.1 7.7 65   1 25 24.1 100.19     Mainly Clear
08:00 14.8 7.5 61   35 25 24.1 100.21     LegendNANA
09:00 17.0 8.9 59   34 17 24.1 100.19     LegendNANA
10:00 18.7 8.7 52   36 17 24.1 100.18     Mainly Clear
11:00 20.1 8.4 47   36 12 24.1 100.14     LegendNANA
12:00 21.4 8.1 42   36 13 24.1 100.13     LegendNANA
13:00 23.2 6.2 33   35 14 24.1 100.13     Mainly Clear
14:00 24.1 4.9 28   2 20 24.1 100.15     LegendNANA
15:00 24.7 4.4 26   3 23 24.1 100.15     LegendNANA
16:00 24.6 4.8 28   4 8 24.1 100.16     Clear
17:00 24.8 3.8 25   4 15 24.1 100.10     LegendNANA
18:00 24.3 3.3 25   4 13 24.1 100.11     LegendNANA
19:00 22.7 4.0 29   2 12 24.1 100.07     Clear
20:00 20.9 3.9 32   1 10 24.1 100.08     LegendNANA
21:00 16.4 6.0 50   11 7 24.1 100.16     LegendNANA
22:00 13.9 7.3 64   6 12 24.1 100.21     Clear
23:00 15.0 7.0 59   6 13 24.1 100.27     LegendNANA

Notes on Data Quality.

Legend

  • E = Estimated
  • M = Missing
  • NA = Not Available*
  • [empty] = Indicates an unobserved value
Date modified: